Regional Weather Roundup
Issued by NWS

Home | Current Version | Previous Version | Graphics & Text | Print | Product List | Glossary On
Versions: 1 2 3 4 5 6 7 8 9 10 11 12 13 14 15 16 17 18 19 20 21 22 23 24 25 26 27 28 29 30 31 32 33 34 35 36 37 38 39 40 41 42 43 44 45 46 47 48 49 50
000
ASUS43 KMKX 010221
RWRWI

WISCONSIN REGIONAL WEATHER ROUNDUP
NATIONAL WEATHER SERVICE MILWAUKEE/SULLIVAN WI
900 PM CDT TUE MAY 31 2016

NOTE: "FAIR" INDICATES FEW OR NO CLOUDS BELOW 12,000 FEET WITH NO
SIGNIFICANT WEATHER AND/OR OBSTRUCTIONS TO VISIBILITY.

WIZ001-002-006>008-014>016-023>028-010300-
NORTHWEST WISCONSIN

CITY           SKY/WX    TMP DP  RH WIND       PRES   REMARKS
SUPERIOR ARPT  CLOUDY    42  40  91 E13G18    29.90F
ASHLAND        LGT RAIN  47  46  97 NE6       29.87F
HAYWARD        CLOUDY    61  58  90 SE8       29.87S
SIREN          CLOUDY    63  57  80 N5        29.85S
CUMBERLAND     CLOUDY    61  59  94 SE7       29.88R
RICE LAKE      CLOUDY    62  59  92 SE8       29.89S
CHETEK         CLOUDY    61  61  99 SE6       29.88S
LADYSMITH      CLOUDY    61  60  96 CALM      29.90F
EAU CLAIRE     CLOUDY    63  62  97 SE5       29.87S
MENOMONIE      CLOUDY    64  64  99 SE6       29.88S
NEW RICHMOND   CLOUDY    65  59  82 S6        29.87R
OSCEOLA        CLOUDY    66  61  84 SE6       29.87S
$$

WIZ003>005-009-010-017-018-010300-
NORTH CENTRAL WISCONSIN

CITY           SKY/WX    TMP DP  RH WIND       PRES   REMARKS
MANITOWISH WTR RAIN      59  59 100 CALM      29.94S
ARBOR VITAE    RAIN      62  58  87 S7        29.94F
WOODRUFF       RAIN      62  58  87 S7        29.94F
RHINELANDER    CLOUDY    61  55  81 E8        29.95S
EAGLE RIVER    CLOUDY    60  52  74 SE5       29.95S
LAND O LAKES   CLOUDY    62  53  72 S6        29.96S
PHILLIPS       LGT RAIN  59  59 100 SE3       29.91F
TOMAHAWK       RAIN      59  56  90 E5        29.94S
MEDFORD        RAIN      60  60 100 E3        29.91F
MERRILL        CLOUDY    64  58  83 SE5       29.93F
$$

WIZ029-030-035-036-043>047-010300-
CENTRAL WISCONSIN

CITY           SKY/WX    TMP DP  RH WIND       PRES   REMARKS
WAUSAU         CLOUDY    68  59  73 SE8       29.91S
MOSINEE        CLOUDY    64  61  88 SE6       29.93F
MARSHFIELD     RAIN      62  59  90 SW6       29.91F FOG
STEVENS POINT  LGT RAIN  64  59  82 E5        29.93F
WAUPACA        CLOUDY    68  61  77 E7        29.93F
WAUTOMA        CLOUDY   N/A N/A N/A SE5       29.94R
WISC RAPIDS    CLOUDY    65  59  81 W9        29.94R
CAMP DOUGLAS   LGT RAIN  63  63 100 W5        29.93S
$$

WIZ011>013-019>022-031-037>040-048>050-010300-
NORTHEAST WISCONSIN

CITY           SKY/WX    TMP DP  RH WIND       PRES   REMARKS
ANTIGO         CLOUDY    60  56  87 SE13      29.95F
SHAWANO        LGT RAIN  64  58  82 E5        29.96S
OCONTO         CLOUDY    58  58 100 CALM      29.98S
STURGEON BAY   CLOUDY    61  48  63 E7        29.99S
GREEN BAY      CLOUDY    62  56  80 E5        29.96S
MANITOWOC      CLOUDY    56  48  74 SE7       29.98F
APPLETON       CLOUDY    66  57  72 SE10      29.93F
CLINTONVILLE   CLOUDY    64  57  77 E5        29.94F
OSHKOSH        CLOUDY    66  59  78 SE8       29.93F
$$

WIZ032>034-041-042-053>061-010300-
SOUTHWEST WISCONSIN

CITY           SKY/WX    TMP DP  RH WIND       PRES   REMARKS
LA CROSSE      LGT RAIN  64  62  93 SE8       29.89F
SPARTA         RAIN      62  62 100 SE5       29.92S
VIROQUA        CLOUDY    63  63 100 SE6       29.93R
BOSCOBEL       NOT AVBL
PRAIRIE DU CHI CLOUDY    64  63  96 E5        29.90S
PLATTEVILLE    CLOUDY    68  64  88 SE7       29.92R
$$

WIZ056-057-062-063-064-067-068-010300-
SOUTH CENTRAL WISCONSIN

CITY           SKY/WX    TMP DP  RH WIND       PRES   REMARKS
REEDSBURG      CLOUDY    67  61  81 SE5       29.91R
BARABOO/DELLS  CLOUDY    65  59  80 SE12      29.92S
LONE ROCK      CLOUDY    69  62  78 E7        29.91S
MINERAL POINT  CLOUDY    68  63  83 SE12      29.92S
MADISON        CLOUDY    68  59  73 S10       29.93S
MIDDLETON      CLOUDY    69  59  71 S7        29.94S
WATERTOWN      CLOUDY    65  64  97 SE6       29.93S
MONROE         PTCLDY    64  61  88 SE7       29.94S
JANESVILLE     MOCLDY    66  63  88 SE7       29.93S
$$

WIZ051-052-058>065-066-070>072-010300-
SOUTHEAST WISCONSIN

CITY           SKY/WX    TMP DP  RH WIND       PRES   REMARKS
MILWAUKEE      CLOUDY    62  58  86 SE6       29.95F
WAUKESHA       CLOUDY    63  61  94 E3        29.96F
MILWAUKEE/TIMM CLOUDY    63  55  77 E5        29.96S
RACINE         CLOUDY    64  59  83 SE6       29.96F
BURLINGTON     MOCLDY    64  61  91 CALM      29.94F
KENOSHA        CLOUDY    65  60  84 E7        29.95F
FOND DU LAC    LGT RAIN  66  61  84 S7        29.93F
SHEBOYGAN      LGT RAIN  55  49  80 E8        29.96F
WEST BEND      CLOUDY    59  55  88 E5        29.95S
JUNEAU         CLOUDY    64  60  86 SE7       29.94F
$$

LSZ147-162-010300-
LAKE SUPERIOR

STATION/POSITION TIME  TEMP    WIND        PRES    WAVE
                       AIR SEA DIR/SP/G            HT/PER
                 (UTC) (F)     (DEG/KT/KT) (MB)    (FT/S)
W MID LAKE BUOY  0150   41 38   50/ 12/ 14 1013.2S   3/ 5
DEVILS ISLAND    0200   42      80/ 16/ 18 1012.5F
SAXON HARBOR     0100   50      50/  1/  3 1011.9S
$$

LMZ867-665-643>646-010300-
LAKE MICHIGAN

STATION/POSITION TIME  TEMP    WIND        PRES    WAVE
                       AIR SEA DIR/SP/G            HT/PER
                 (UTC) (F)     (DEG/KT/KT) (MB)    (FT/S)
CHAMBERS ISLAND  0100   62      90/  4/ 11 1015.2F
N MID LAKE BUOY  0150   56 48   80/ 10/ 14 1015.4F   1
NORTHPORT PIER   0140   57     160/  1/  3 1015.6F
SISTER BAY       0020   60     100/ 12/ 16   N/A
ALGOMA LAKESHORE 0017           50/ 11/ 15   N/A
KEWAUNEE LAKESHO 0100                      1014.7F
SHEBOYGAN LAKESH 0200   51     350/  4/  5 1015.2F
PORT WASHINGTON  0100   55      30/  3/ 10 1015.6F
S MID LAKE BUOY  0150   56 55   70/ 10/ 12 1014.6F   1/ 3
KENOSHA   LAKESH 0200   61     130/  2/  4 1014.2F
$$

TC  - TEMPERATURE IN CELSIUS
VSB - VISIBILITY IN STATUTE MILES
WCI - WIND CHILL INDEX
HX  - HEAT INDEX





USA.gov is the U.S. government's official web portal to all federal, state and local government web resources and services.